Time,TemperatureF,DewpointF,PressureIn,WindDirection,WindDirectionDegrees,WindSpeedMPH,WindSpeedGustMPH,Humidity,HourlyPrecipIn,Conditions,Clouds,dailyrainin,SolarRadiationWatts/m^2,SoftwareType,DateUTC
2013-06-13 00:01:00,74.0,69.0,-100.00,SSW,194,2.0,4.0,84,0.00,,,0.00,0.000000,,2013-06-13 04:01:00,
2013-06-13 00:12:00,74.0,69.0,-100.00,SSW,194,2.0,4.0,84,0.00,,,0.00,0.000000,,2013-06-13 04:12:00,
2013-06-13 00:33:00,73.0,69.0,-100.00,West,266,2.0,5.0,86,0.00,,,0.00,0.000000,,2013-06-13 04:33:00,
2013-06-13 00:43:00,73.0,69.0,-100.00,West,266,2.0,5.0,86,0.00,,,0.00,0.000000,,2013-06-13 04:43:00,
2013-06-13 00:54:00,73.0,69.0,-100.00,West,266,2.0,5.0,86,0.00,,,0.00,0.000000,,2013-06-13 04:54:00,
2013-06-13 01:02:00,73.0,69.0,-100.00,West,266,2.0,5.0,86,0.00,,,0.00,0.000000,,2013-06-13 05:02:00,
2013-06-13 01:12:00,73.0,69.0,-100.00,West,266,2.0,5.0,86,0.00,,,0.00,0.000000,,2013-06-13 05:12:00,
2013-06-13 01:43:00,71.0,69.0,-100.00,SSE,167,0.0,4.0,93,0.00,,,0.00,0.000000,,2013-06-13 05:43:00,
2013-06-13 01:53:00,71.0,69.0,-100.00,SSE,167,0.0,4.0,93,0.00,,,0.00,0.000000,,2013-06-13 05:53:00,
2013-06-13 02:02:00,71.0,69.0,-100.00,SSE,167,0.0,4.0,93,0.00,,,0.00,0.000000,,2013-06-13 06:02:00,
2013-06-13 02:11:00,71.0,69.0,-100.00,SSE,167,0.0,4.0,93,0.00,,,0.00,0.000000,,2013-06-13 06:11:00,
2013-06-13 02:44:00,72.0,69.0,-100.00,SSW,201,4.0,7.0,91,0.00,,,0.00,0.000000,,2013-06-13 06:44:00,
2013-06-13 02:52:00,72.0,69.0,-100.00,SSW,201,4.0,7.0,91,0.00,,,0.00,0.000000,,2013-06-13 06:52:00,
2013-06-13 03:02:00,72.0,69.0,-100.00,SSW,201,4.0,7.0,91,0.00,,,0.00,0.000000,,2013-06-13 07:02:00,
2013-06-13 03:12:00,72.0,69.0,-100.00,SSW,201,4.0,7.0,91,0.00,,,0.00,0.000000,,2013-06-13 07:12:00,
2013-06-13 03:33:00,72.0,72.0,-100.00,South,190,7.0,12.0,100,0.05,,,0.05,0.000000,,2013-06-13 07:33:00,
2013-06-13 03:42:00,72.0,72.0,-100.00,South,190,7.0,12.0,100,0.05,,,0.05,0.000000,,2013-06-13 07:42:00,
2013-06-13 03:52:00,72.0,72.0,-100.00,South,190,7.0,12.0,100,0.05,,,0.05,0.000000,,2013-06-13 07:52:00,
2013-06-13 04:02:00,72.0,72.0,-100.00,South,190,7.0,12.0,100,0.05,,,0.05,0.000000,,2013-06-13 08:02:00,
2013-06-13 04:11:00,72.0,72.0,-100.00,South,190,7.0,12.0,100,0.05,,,0.05,0.000000,,2013-06-13 08:11:00,
2013-06-13 04:32:00,72.0,72.0,-100.00,SSW,206,3.0,14.0,100,0.03,,,0.08,0.000000,,2013-06-13 08:32:00,
2013-06-13 04:43:00,72.0,72.0,-100.00,SSW,206,3.0,14.0,100,0.03,,,0.08,0.000000,,2013-06-13 08:43:00,
2013-06-13 04:52:00,72.0,72.0,-100.00,SSW,206,3.0,14.0,100,0.03,,,0.08,0.000000,,2013-06-13 08:52:00,
2013-06-13 05:02:00,72.0,72.0,-100.00,SSW,206,3.0,14.0,100,0.03,,,0.08,0.000000,,2013-06-13 09:02:00,
2013-06-13 05:12:00,72.0,72.0,-100.00,SSW,206,3.0,14.0,100,0.03,,,0.08,0.000000,,2013-06-13 09:12:00,
2013-06-13 05:32:00,70.0,70.0,-100.00,South,181,3.0,6.0,100,0.00,,,0.08,0.000000,,2013-06-13 09:32:00,
2013-06-13 05:42:00,70.0,70.0,-100.00,South,181,3.0,6.0,100,0.00,,,0.08,0.000000,,2013-06-13 09:42:00,
2013-06-13 05:52:00,70.0,70.0,-100.00,South,181,3.0,6.0,100,0.00,,,0.08,0.000000,,2013-06-13 09:52:00,
2013-06-13 06:01:00,70.0,70.0,-100.00,South,181,3.0,6.0,100,0.00,,,0.08,0.000000,,2013-06-13 10:01:00,
2013-06-13 06:12:00,70.0,70.0,-100.00,South,181,3.0,6.0,100,0.00,,,0.08,0.000000,,2013-06-13 10:12:00,
2013-06-13 06:43:00,70.0,70.0,-100.00,South,173,3.0,6.0,100,0.00,,,0.08,2.000000,,2013-06-13 10:43:00,
2013-06-13 06:53:00,70.0,70.0,-100.00,South,173,3.0,6.0,100,0.00,,,0.08,2.000000,,2013-06-13 10:53:00,
2013-06-13 07:02:00,70.0,70.0,-100.00,South,173,3.0,6.0,100,0.00,,,0.08,2.000000,,2013-06-13 11:02:00,
2013-06-13 07:12:00,70.0,70.0,-100.00,South,173,3.0,6.0,100,0.00,,,0.08,2.000000,,2013-06-13 11:12:00,
2013-06-13 07:42:00,70.0,70.0,-100.00,South,188,8.0,10.0,100,0.00,,,0.08,12.000000,,2013-06-13 11:42:00,
2013-06-13 07:52:00,70.0,70.0,-100.00,South,188,8.0,10.0,100,0.00,,,0.08,12.000000,,2013-06-13 11:52:00,
2013-06-13 08:02:00,70.0,70.0,-100.00,South,188,8.0,10.0,100,0.00,,,0.08,12.000000,,2013-06-13 12:02:00,
2013-06-13 08:12:00,70.0,70.0,-100.00,South,188,8.0,10.0,100,0.00,,,0.08,12.000000,,2013-06-13 12:12:00,
2013-06-13 08:35:00,69.0,69.0,-100.00,West,262,6.0,33.0,100,0.23,,,0.31,8.000000,,2013-06-13 12:35:00,
2013-06-13 08:43:00,69.0,69.0,-100.00,West,262,6.0,33.0,100,0.23,,,0.31,8.000000,,2013-06-13 12:43:00,
2013-06-13 08:52:00,69.0,69.0,-100.00,West,262,6.0,33.0,100,0.23,,,0.31,8.000000,,2013-06-13 12:52:00,
2013-06-13 09:02:00,69.0,69.0,-100.00,West,262,6.0,33.0,100,0.23,,,0.31,8.000000,,2013-06-13 13:02:00,
2013-06-13 09:11:00,69.0,69.0,-100.00,West,262,6.0,33.0,100,0.23,,,0.31,8.000000,,2013-06-13 13:11:00,
2013-06-13 09:43:00,69.0,67.0,-100.00,South,179,9.0,15.0,94,0.04,,,0.35,31.000000,,2013-06-13 13:43:00,
2013-06-13 09:53:00,69.0,67.0,-100.00,South,179,9.0,15.0,94,0.04,,,0.35,31.000000,,2013-06-13 13:53:00,
2013-06-13 10:02:00,69.0,67.0,-100.00,South,179,9.0,15.0,94,0.04,,,0.35,31.000000,,2013-06-13 14:02:00,
2013-06-13 10:11:00,69.0,67.0,-100.00,South,179,9.0,15.0,94,0.04,,,0.35,31.000000,,2013-06-13 14:11:00,
2013-06-13 10:43:00,71.0,65.0,-100.00,SW,222,7.0,24.0,81,0.02,,,0.37,48.000000,,2013-06-13 14:43:00,
2013-06-13 10:53:00,71.0,65.0,-100.00,SW,222,7.0,24.0,81,0.02,,,0.37,48.000000,,2013-06-13 14:53:00,
2013-06-13 11:02:00,71.0,65.0,-100.00,SW,222,7.0,24.0,81,0.02,,,0.37,48.000000,,2013-06-13 15:02:00,
2013-06-13 11:12:00,71.0,65.0,-100.00,SW,222,7.0,24.0,81,0.02,,,0.37,48.000000,,2013-06-13 15:12:00,
2013-06-13 11:43:00,75.0,67.0,-100.00,SW,219,8.0,16.0,76,0.00,,,0.37,270.000000,,2013-06-13 15:43:00,
2013-06-13 11:53:00,75.0,67.0,-100.00,SW,219,8.0,16.0,76,0.00,,,0.37,270.000000,,2013-06-13 15:53:00,
2013-06-13 12:02:00,75.0,67.0,-100.00,SW,219,8.0,16.0,76,0.00,,,0.37,270.000000,,2013-06-13 16:02:00,
2013-06-13 12:12:00,75.0,67.0,-100.00,SW,219,8.0,16.0,76,0.00,,,0.37,270.000000,,2013-06-13 16:12:00,
2013-06-13 12:43:00,78.0,64.0,-100.00,SW,233,7.0,14.0,63,0.00,,,0.37,568.000000,,2013-06-13 16:43:00,
2013-06-13 12:54:00,78.0,64.0,-100.00,SW,233,7.0,14.0,63,0.00,,,0.37,568.000000,,2013-06-13 16:54:00,
2013-06-13 13:02:00,78.0,64.0,-100.00,SW,233,7.0,14.0,63,0.00,,,0.37,568.000000,,2013-06-13 17:02:00,
2013-06-13 13:12:00,78.0,64.0,-100.00,SW,233,7.0,14.0,63,0.00,,,0.37,568.000000,,2013-06-13 17:12:00,
2013-06-13 13:33:00,81.0,65.0,-100.00,West,272,11.0,22.0,59,0.00,,,0.37,781.000000,,2013-06-13 17:33:00,
2013-06-13 13:43:00,81.0,65.0,-100.00,West,272,11.0,22.0,59,0.00,,,0.37,781.000000,,2013-06-13 17:43:00,
2013-06-13 13:53:00,81.0,65.0,-100.00,West,272,11.0,22.0,59,0.00,,,0.37,781.000000,,2013-06-13 17:53:00,
2013-06-13 14:02:00,81.0,65.0,-100.00,West,272,11.0,22.0,59,0.00,,,0.37,781.000000,,2013-06-13 18:02:00,
2013-06-13 14:11:00,81.0,65.0,-100.00,West,272,11.0,22.0,59,0.00,,,0.37,781.000000,,2013-06-13 18:11:00,
2013-06-13 14:43:00,84.0,67.0,-100.00,WNW,295,11.0,22.0,57,0.00,,,0.37,872.000000,,2013-06-13 18:43:00,
2013-06-13 14:52:00,84.0,67.0,-100.00,WNW,295,11.0,22.0,57,0.00,,,0.37,872.000000,,2013-06-13 18:52:00,
2013-06-13 15:02:00,84.0,67.0,-100.00,WNW,295,11.0,22.0,57,0.00,,,0.37,872.000000,,2013-06-13 19:02:00,
2013-06-13 15:11:00,84.0,67.0,-100.00,WNW,295,11.0,22.0,57,0.00,,,0.37,872.000000,,2013-06-13 19:11:00,
2013-06-13 15:43:00,77.0,65.0,-100.00,West,278,9.0,21.0,66,0.00,,,0.37,263.000000,,2013-06-13 19:43:00,
2013-06-13 15:53:00,77.0,65.0,-100.00,West,278,9.0,21.0,66,0.00,,,0.37,263.000000,,2013-06-13 19:53:00,
2013-06-13 16:02:00,77.0,65.0,-100.00,West,278,9.0,21.0,66,0.00,,,0.37,263.000000,,2013-06-13 20:02:00,
2013-06-13 16:11:00,77.0,65.0,-100.00,West,278,9.0,21.0,66,0.00,,,0.37,263.000000,,2013-06-13 20:11:00,
2013-06-13 16:44:00,77.0,70.0,-100.00,WSW,246,5.0,14.0,80,0.03,,,0.40,183.000000,,2013-06-13 20:44:00,
2013-06-13 16:53:00,77.0,70.0,-100.00,WSW,246,5.0,14.0,80,0.03,,,0.40,183.000000,,2013-06-13 20:53:00,
2013-06-13 17:02:00,77.0,70.0,-100.00,WSW,246,5.0,14.0,80,0.03,,,0.40,183.000000,,2013-06-13 21:02:00,
2013-06-13 17:11:00,77.0,70.0,-100.00,WSW,246,5.0,14.0,80,0.03,,,0.40,183.000000,,2013-06-13 21:11:00,
2013-06-13 17:43:00,74.0,67.0,-100.00,WSW,257,5.0,15.0,78,0.00,,,0.40,143.000000,,2013-06-13 21:43:00,
2013-06-13 17:52:00,74.0,67.0,-100.00,WSW,257,5.0,15.0,78,0.00,,,0.40,143.000000,,2013-06-13 21:52:00,
2013-06-13 18:02:00,74.0,67.0,-100.00,WSW,257,5.0,15.0,78,0.00,,,0.40,143.000000,,2013-06-13 22:02:00,
2013-06-13 18:11:00,74.0,67.0,-100.00,WSW,257,5.0,15.0,78,0.00,,,0.40,143.000000,,2013-06-13 22:11:00,
2013-06-13 18:33:00,74.0,66.0,-100.00,NW,306,10.0,19.0,77,0.00,,,0.40,80.000000,,2013-06-13 22:33:00,
2013-06-13 18:43:00,74.0,66.0,-100.00,NW,306,10.0,19.0,77,0.00,,,0.40,80.000000,,2013-06-13 22:43:00,
2013-06-13 18:52:00,74.0,66.0,-100.00,NW,306,10.0,19.0,77,0.00,,,0.40,80.000000,,2013-06-13 22:52:00,
2013-06-13 19:02:00,74.0,66.0,-100.00,NW,306,10.0,19.0,77,0.00,,,0.40,80.000000,,2013-06-13 23:02:00,
2013-06-13 19:11:00,74.0,66.0,-100.00,NW,306,10.0,19.0,77,0.00,,,0.40,80.000000,,2013-06-13 23:11:00,
2013-06-13 19:43:00,71.0,59.0,-100.00,NW,304,8.0,24.0,65,0.00,,,0.40,79.000000,,2013-06-13 23:43:00,
2013-06-13 19:52:00,71.0,59.0,-100.00,NW,304,8.0,24.0,65,0.00,,,0.40,79.000000,,2013-06-13 23:52:00,
2013-06-13 20:02:00,71.0,59.0,-100.00,NW,304,8.0,24.0,65,0.00,,,0.40,79.000000,,2013-06-14 00:02:00,
2013-06-13 20:12:00,71.0,59.0,-100.00,NW,304,8.0,24.0,65,0.00,,,0.40,79.000000,,2013-06-14 00:12:00,
2013-06-13 20:43:00,70.0,57.0,-100.00,WNW,294,10.0,19.0,64,0.00,,,0.40,51.000000,,2013-06-14 00:43:00,
2013-06-13 20:53:00,70.0,57.0,-100.00,WNW,294,10.0,19.0,64,0.00,,,0.40,51.000000,,2013-06-14 00:53:00,
2013-06-13 21:01:00,70.0,57.0,-100.00,WNW,294,10.0,19.0,64,0.00,,,0.40,51.000000,,2013-06-14 01:01:00,
2013-06-13 21:11:00,70.0,57.0,-100.00,WNW,294,10.0,19.0,64,0.00,,,0.40,51.000000,,2013-06-14 01:11:00,
2013-06-13 21:43:00,69.0,57.0,-100.00,WNW,301,12.0,24.0,65,0.00,,,0.40,7.000000,,2013-06-14 01:43:00,
2013-06-13 21:53:00,69.0,57.0,-100.00,WNW,301,12.0,24.0,65,0.00,,,0.40,7.000000,,2013-06-14 01:53:00,
2013-06-13 22:02:00,69.0,57.0,-100.00,WNW,301,12.0,24.0,65,0.00,,,0.40,7.000000,,2013-06-14 02:02:00,
2013-06-13 22:11:00,69.0,57.0,-100.00,WNW,301,12.0,24.0,65,0.00,,,0.40,7.000000,,2013-06-14 02:11:00,
2013-06-13 22:43:00,68.0,56.0,-100.00,NW,309,10.0,22.0,65,0.00,,,0.40,0.000000,,2013-06-14 02:43:00,
2013-06-13 22:53:00,68.0,56.0,-100.00,NW,309,10.0,22.0,65,0.00,,,0.40,0.000000,,2013-06-14 02:53:00,
2013-06-13 23:02:00,68.0,56.0,-100.00,NW,309,10.0,22.0,65,0.00,,,0.40,0.000000,,2013-06-14 03:02:00,
2013-06-13 23:12:00,68.0,56.0,-100.00,NW,309,10.0,22.0,65,0.00,,,0.40,0.000000,,2013-06-14 03:12:00,
2013-06-13 23:43:00,68.0,53.0,-100.00,NW,320,9.0,24.0,58,0.00,,,0.40,0.000000,,2013-06-14 03:43:00,
2013-06-13 23:53:00,68.0,53.0,-100.00,NW,320,9.0,24.0,58,0.00,,,0.40,0.000000,,2013-06-14 03:53:00,